Data No, UTC Date,UTC Time,Latitude,Longitude,Course(deg),Temp(degC),Sal(psu)
725,2018/2/21,12:04,35-35.72N,139-47.19E,197,9.892,30.481
726,2018/2/21,12:05,35-35.57N,139-47.18E,178,9.823,30.5715
727,2018/2/21,12:06,35-35.43N,139-47.22E,162,9.825,30.6343
728,2018/2/21,12:07,35-35.27N,139-47.31E,151,9.77,30.455
729,2018/2/21,12:08,35-35.11N,139-47.45E,142,9.701,30.3742
730,2018/2/21,12:09,35-34.95N,139-47.63E,134,9.635,30.3734
731,2018/2/21,12:10,35-34.81N,139-47.82E,132,9.608,30.3953
732,2018/2/21,12:11,35-34.65N,139-48.02E,133,9.579,30.4411
733,2018/2/21,12:12,35-34.50N,139-48.23E,132,9.551,30.4467
734,2018/2/21,12:13,35-34.34N,139-48.43E,132,9.595,30.3465
735,2018/2/21,12:14,35-34.19N,139-48.64E,130,9.601,30.3713
736,2018/2/21,12:15,35-34.05N,139-48.86E,128,9.616,30.4621
737,2018/2/21,12:16,35-33.91N,139-49.07E,128,9.573,30.5027
738,2018/2/21,12:17,35-33.77N,139-49.29E,128,9.526,30.542
739,2018/2/21,12:18,35-33.62N,139-49.52E,128,9.463,30.604
740,2018/2/21,12:19,35-33.48N,139-49.73E,129,9.403,30.7164
741,2018/2/21,12:20,35-33.34N,139-49.95E,128,9.36,30.8475
742,2018/2/21,12:21,35-33.18N,139-50.19E,128,9.386,30.949
743,2018/2/21,12:22,35-33.03N,139-50.43E,127,9.4,31.1734
744,2018/2/21,12:23,35-32.83N,139-50.65E,146,9.392,31.3397
745,2018/2/21,12:24,35-32.56N,139-50.72E,175,9.368,31.4639
746,2018/2/21,12:25,35-32.28N,139-50.73E,177,9.325,31.5553
747,2018/2/21,12:26,35-32.00N,139-50.76E,176,9.278,31.6487
748,2018/2/21,12:27,35-31.71N,139-50.77E,178,9.314,31.7445
749,2018/2/21,12:28,35-31.41N,139-50.77E,179,9.274,31.8293
750,2018/2/21,12:29,35-31.11N,139-50.77E,180,9.249,31.894
751,2018/2/21,12:30,35-30.80N,139-50.77E,181,9.209,31.9232
752,2018/2/21,12:31,35-30.49N,139-50.75E,182,9.212,31.9452
753,2018/2/21,12:32,35-30.18N,139-50.73E,183,9.255,31.9525
754,2018/2/21,12:33,35-29.87N,139-50.67E,194,9.255,31.9757
755,2018/2/21,12:34,35-29.61N,139-50.49E,212,9.303,31.983
756,2018/2/21,12:35,35-29.38N,139-50.23E,227,9.293,32.008
757,2018/2/21,12:36,35-29.17N,139-49.94E,228,9.303,32.0216
758,2018/2/21,12:37,35-28.97N,139-49.65E,229,9.335,32.0292
759,2018/2/21,12:38,35-28.76N,139-49.36E,228,9.378,32.0424
760,2018/2/21,12:39,35-28.55N,139-49.07E,228,9.372,32.0486
761,2018/2/21,12:40,35-28.34N,139-48.77E,230,9.379,32.0594
762,2018/2/21,12:41,35-28.14N,139-48.47E,231,9.43,32.0787
763,2018/2/21,12:42,35-27.94N,139-48.15E,232,9.44,32.1219
764,2018/2/21,12:43,35-27.74N,139-47.84E,232,9.427,32.1588
765,2018/2/21,12:44,35-27.55N,139-47.54E,232,9.464,32.1689
766,2018/2/21,12:45,35-27.36N,139-47.22E,233,9.482,32.1918
767,2018/2/21,12:46,35-27.17N,139-46.91E,233,9.464,32.2412
768,2018/2/21,12:47,35-26.98N,139-46.60E,233,9.453,32.2285
769,2018/2/21,12:48,35-26.78N,139-46.28E,233,9.488,32.2358
770,2018/2/21,12:49,35-26.59N,139-45.96E,233,9.483,32.2567
771,2018/2/21,12:50,35-26.39N,139-45.65E,231,9.477,32.2569
772,2018/2/21,12:51,35-26.19N,139-45.36E,229,9.474,32.26
773,2018/2/21,12:52,35-25.98N,139-45.07E,228,9.458,32.2548
774,2018/2/21,12:53,35-25.77N,139-44.77E,228,9.443,32.2496
775,2018/2/21,12:54,35-25.55N,139-44.48E,228,9.42,32.2417
776,2018/2/21,12:55,35-25.34N,139-44.19E,226,9.452,32.238
777,2018/2/21,12:56,35-25.11N,139-43.91E,224,9.446,32.2487
778,2018/2/21,12:57,35-24.87N,139-43.63E,223,9.479,32.2605
779,2018/2/21,12:58,35-24.64N,139-43.38E,216,9.554,32.2586
780,2018/2/21,12:59,35-24.37N,139-43.20E,207,9.613,32.284
781,2018/2/21,13:00,35-24.08N,139-43.03E,206,9.722,32.3275
782,2018/2/21,13:01,35-23.80N,139-42.86E,204,9.819,32.3899
783,2018/2/21,13:02,35-23.50N,139-42.70E,203,9.862,32.4486
784,2018/2/21,13:03,35-23.21N,139-42.55E,202,9.918,32.49
785,2018/2/21,13:04,35-22.91N,139-42.42E,195,9.958,32.5272
786,2018/2/21,13:05,35-22.61N,139-42.41E,177,9.973,32.5512
787,2018/2/21,13:06,35-22.29N,139-42.43E,176,10.005,32.5681
788,2018/2/21,13:07,35-21.97N,139-42.46E,176,10.037,32.5866
789,2018/2/21,13:08,35-21.66N,139-42.48E,176,10.068,32.601
790,2018/2/21,13:09,35-21.34N,139-42.51E,176,10.123,32.6195
791,2018/2/21,13:10,35-21.02N,139-42.53E,175,10.193,32.6448
792,2018/2/21,13:11,35-20.72N,139-42.56E,176,10.215,32.6814
793,2018/2/21,13:12,35-20.46N,139-42.58E,176,10.218,32.7056
794,2018/2/21,13:13,35-20.22N,139-42.60E,176,10.254,32.71
795,2018/2/21,13:14,35-19.99N,139-42.61E,176,10.328,32.7249
796,2018/2/21,13:15,35-19.77N,139-42.63E,172,10.351,32.7582
797,2018/2/21,13:16,35-19.59N,139-42.72E,152,10.336,32.7876
798,2018/2/21,13:17,35-19.42N,139-42.86E,145,10.549,32.7895
799,2018/2/21,13:18,35-19.24N,139-43.00E,147,10.619,32.8485
800,2018/2/21,13:19,35-19.05N,139-43.15E,147,10.547,32.9363
801,2018/2/21,13:20,35-18.87N,139-43.28E,147,10.53,32.8979
802,2018/2/21,13:21,35-18.69N,139-43.43E,147,10.563,32.8893
803,2018/2/21,13:22,35-18.51N,139-43.57E,146,10.659,32.9103
804,2018/2/21,13:23,35-18.33N,139-43.72E,146,10.702,32.9584
805,2018/2/21,13:24,35-18.16N,139-43.87E,144,10.708,32.9867
806,2018/2/21,13:25,35-17.98N,139-44.03E,143,10.866,32.9977
807,2018/2/21,13:26,35-17.81N,139-44.18E,143,10.9,33.0423
808,2018/2/21,13:27,35-17.64N,139-44.34E,144,10.818,33.1061
809,2018/2/21,13:28,35-17.47N,139-44.50E,141,11.127,33.0627
810,2018/2/21,13:29,35-17.30N,139-44.65E,142,11.106,33.1794
811,2018/2/21,13:30,35-17.13N,139-44.81E,142,11.052,33.2354
812,2018/2/21,13:31,35-16.96N,139-44.97E,143,11.014,33.2123
813,2018/2/21,13:32,35-16.79N,139-45.13E,142,10.975,33.1919
814,2018/2/21,13:33,35-16.63N,139-45.28E,141,10.95,33.1641
815,2018/2/21,13:34,35-16.47N,139-45.44E,141,10.895,33.147
816,2018/2/21,13:35,35-16.30N,139-45.60E,142,10.925,33.1193
817,2018/2/21,13:36,35-16.13N,139-45.76E,142,10.866,33.1207
818,2018/2/21,13:37,35-15.96N,139-45.91E,145,11.306,33.1046
819,2018/2/21,13:38,35-15.78N,139-46.06E,144,11.534,33.2354
820,2018/2/21,13:39,35-15.60N,139-46.20E,150,11.697,33.4641
821,2018/2/21,13:40,35-15.41N,139-46.29E,162,11.766,33.5422
822,2018/2/21,13:41,35-15.20N,139-46.35E,170,11.865,33.5645
823,2018/2/21,13:42,35-14.99N,139-46.37E,175,11.952,33.5976
824,2018/2/21,13:43,35-14.78N,139-46.39E,177,12.27,33.6223
825,2018/2/21,13:44,35-14.57N,139-46.40E,178,12.693,33.6788
826,2018/2/21,13:45,35-14.37N,139-46.41E,178,12.809,33.7947
827,2018/2/21,13:46,35-14.16N,139-46.42E,178,12.914,33.8507
828,2018/2/21,13:47,35-13.95N,139-46.42E,177,12.948,33.8793
829,2018/2/21,13:48,35-13.74N,139-46.43E,179,12.851,33.8945
830,2018/2/21,13:49,35-13.53N,139-46.44E,178,12.977,33.866
831,2018/2/21,13:50,35-13.32N,139-46.44E,179,13.11,33.8861
832,2018/2/21,13:51,35-13.10N,139-46.42E,188,13.061,33.9271
833,2018/2/21,13:52,35-12.89N,139-46.36E,194,13.371,33.928
834,2018/2/21,13:53,35-12.68N,139-46.29E,194,13.77,33.992
835,2018/2/21,13:54,35-12.44N,139-46.21E,195,14.442,34.0813
836,2018/2/21,13:55,35-12.18N,139-46.13E,194,14.461,34.2499
837,2018/2/21,13:56,35-11.91N,139-46.04E,194,15.048,34.3324
838,2018/2/21,13:57,35-11.63N,139-45.95E,195,15.288,34.4275
839,2018/2/21,13:58,35-11.33N,139-45.85E,195,15.418,34.4892
840,2018/2/21,13:59,35-11.04N,139-45.75E,196,15.47,34.5092
841,2018/2/21,14:00,35-10.73N,139-45.64E,196,15.602,34.5152
842,2018/2/21,14:01,35-10.43N,139-45.53E,197,15.663,34.5282
843,2018/2/21,14:02,35-10.13N,139-45.41E,197,15.774,34.5351
844,2018/2/21,14:03,35-09.84N,139-45.30E,198,15.861,34.5461
845,2018/2/21,14:04,35-09.54N,139-45.18E,198,15.821,34.5496
846,2018/2/21,14:05,35-09.25N,139-45.06E,197,15.725,34.5476
847,2018/2/21,14:06,35-08.94N,139-44.94E,196,15.451,34.5426
848,2018/2/21,14:07,35-08.64N,139-44.83E,196,14.954,34.5289
849,2018/2/21,14:08,35-08.34N,139-44.73E,194,14.388,34.4933
850,2018/2/21,14:09,35-08.04N,139-44.63E,196,14.191,34.4429
851,2018/2/21,14:10,35-07.74N,139-44.52E,195,14.186,34.3895
852,2018/2/21,14:11,35-07.43N,139-44.42E,196,14.302,34.3843
853,2018/2/21,14:12,35-07.12N,139-44.31E,195,14.817,34.3773
854,2018/2/21,14:13,35-06.82N,139-44.21E,195,14.892,34.4452
855,2018/2/21,14:14,35-06.52N,139-44.11E,195,14.856,34.4594
856,2018/2/21,14:15,35-06.22N,139-44.01E,195,14.794,34.453
857,2018/2/21,14:16,35-05.91N,139-43.90E,195,14.736,34.4447
858,2018/2/21,14:17,35-05.60N,139-43.80E,195,14.655,34.4396
859,2018/2/21,14:18,35-05.29N,139-43.70E,194,14.53,34.4314
860,2018/2/21,14:19,35-04.98N,139-43.60E,194,14.449,34.4197
861,2018/2/21,14:20,35-04.68N,139-43.51E,192,14.385,34.4139
862,2018/2/21,14:21,35-04.38N,139-43.44E,191,15.329,34.4079
863,2018/2/21,14:22,35-04.09N,139-43.36E,192,16.031,34.4643
864,2018/2/21,14:23,35-03.80N,139-43.28E,193,16.251,34.542
865,2018/2/21,14:24,35-03.50N,139-43.20E,192,16.382,34.564
866,2018/2/21,14:25,35-03.21N,139-43.11E,194,16.424,34.5737
867,2018/2/21,14:26,35-02.93N,139-43.01E,196,16.457,34.5774
868,2018/2/21,14:27,35-02.65N,139-42.89E,200,16.493,34.5798
869,2018/2/21,14:28,35-02.38N,139-42.76E,202,16.538,34.5836
870,2018/2/21,14:29,35-02.11N,139-42.62E,202,16.571,34.589
871,2018/2/21,14:30,35-01.83N,139-42.47E,203,16.611,34.5911
872,2018/2/21,14:31,35-01.56N,139-42.32E,204,16.699,34.595
873,2018/2/21,14:32,35-01.29N,139-42.18E,201,16.818,34.6116
874,2018/2/21,14:33,35-01.00N,139-42.06E,196,16.873,34.6271
875,2018/2/21,14:34,35-00.71N,139-41.98E,192,16.881,34.6327
876,2018/2/21,14:35,35-00.42N,139-41.92E,188,16.896,34.6316
877,2018/2/21,14:36,35-00.12N,139-41.88E,184,16.898,34.6331
878,2018/2/21,14:37,34-59.82N,139-41.86E,183,16.909,34.633
879,2018/2/21,14:38,34-59.52N,139-41.84E,183,16.888,34.6333
880,2018/2/21,14:39,34-59.22N,139-41.82E,182,16.838,34.6309
881,2018/2/21,14:40,34-58.92N,139-41.82E,179,16.795,34.6263
882,2018/2/21,14:41,34-58.61N,139-41.83E,178,16.834,34.6217
883,2018/2/21,14:42,34-58.31N,139-41.86E,174,16.862,34.6311
884,2018/2/21,14:43,34-58.01N,139-41.93E,166,16.88,34.6359
885,2018/2/21,14:44,34-57.71N,139-42.03E,163,16.911,34.6412
886,2018/2/21,14:45,34-57.44N,139-42.18E,149,16.877,34.6474
887,2018/2/21,14:46,34-57.20N,139-42.40E,140,16.875,34.6456
888,2018/2/21,14:47,34-56.97N,139-42.64E,140,16.909,34.6472
889,2018/2/21,14:48,34-56.73N,139-42.87E,140,16.933,34.6466
890,2018/2/21,14:49,34-56.49N,139-43.12E,140,16.987,34.6455
891,2018/2/21,14:50,34-56.25N,139-43.36E,140,17.225,34.6487
892,2018/2/21,14:51,34-56.01N,139-43.59E,141,17.315,34.6615
893,2018/2/21,14:52,34-55.76N,139-43.82E,144,17.372,34.6653
894,2018/2/21,14:53,34-55.51N,139-44.04E,145,17.413,34.6652
895,2018/2/21,14:54,34-55.25N,139-44.25E,145,17.435,34.6678
896,2018/2/21,14:55,34-54.99N,139-44.47E,145,17.498,34.6685
897,2018/2/21,14:56,34-54.73N,139-44.69E,144,17.578,34.6728
898,2018/2/21,14:57,34-54.48N,139-44.90E,145,17.647,34.6762
899,2018/2/21,14:58,34-54.22N,139-45.12E,145,17.663,34.6793
900,2018/2/21,14:59,34-53.96N,139-45.34E,145,17.57,34.68
901,2018/2/21,15:00,34-53.70N,139-45.56E,145,17.552,34.6771
902,2018/2/21,15:01,34-53.44N,139-45.80E,141,17.674,34.6737
903,2018/2/21,15:02,34-53.21N,139-46.06E,133,17.696,34.6763
904,2018/2/21,15:03,34-53.00N,139-46.41E,122,17.75,34.6783
905,2018/2/21,15:04,34-52.86N,139-46.75E,116,17.774,34.6802
906,2018/2/21,15:05,34-52.74N,139-47.07E,113,17.808,34.6799
907,2018/2/21,15:06,34-52.62N,139-47.41E,112,17.742,34.6822
908,2018/2/21,15:07,34-52.50N,139-47.77E,113,17.775,34.6806
909,2018/2/21,15:08,34-52.37N,139-48.13E,113,17.805,34.682
910,2018/2/21,15:09,34-52.25N,139-48.48E,111,17.867,34.6851
911,2018/2/21,15:10,34-52.15N,139-48.91E,105,17.906,34.687
912,2018/2/21,15:11,34-52.11N,139-49.24E,98,17.973,34.6896
913,2018/2/21,15:12,34-52.07N,139-49.62E,95,17.983,34.6922
914,2018/2/21,15:13,34-52.04N,139-50.02E,95,17.984,34.6927
915,2018/2/21,15:14,34-52.00N,139-50.41E,96,17.952,34.6918
916,2018/2/21,15:15,34-51.97N,139-50.80E,96,17.924,34.6886
917,2018/2/21,15:16,34-51.94N,139-51.19E,95,17.923,34.6867
918,2018/2/21,15:17,34-51.90N,139-51.59E,96,17.887,34.689
919,2018/2/21,15:18,34-51.87N,139-51.99E,96,17.881,34.6879
920,2018/2/21,15:19,34-51.83N,139-52.39E,96,17.867,34.6864
921,2018/2/21,15:20,34-51.80N,139-52.79E,95,17.855,34.6834
922,2018/2/21,15:21,34-51.77N,139-53.19E,94,17.92,34.6824
923,2018/2/21,15:22,34-51.74N,139-53.59E,95,17.965,34.6868
924,2018/2/21,15:23,34-51.71N,139-53.97E,95,18.006,34.6944
925,2018/2/21,15:24,34-51.70N,139-54.36E,90,18.023,34.6982
926,2018/2/21,15:25,34-51.71N,139-54.76E,87,18.027,34.7001
927,2018/2/21,15:26,34-51.73N,139-55.15E,87,18.057,34.6962
928,2018/2/21,15:27,34-51.79N,139-55.53E,72,18.074,34.6974
929,2018/2/21,15:28,34-51.92N,139-55.87E,64,18.061,34.6991
930,2018/2/21,15:29,34-52.06N,139-56.20E,63,18.03,34.6921
931,2018/2/21,15:30,34-52.21N,139-56.55E,63,17.981,34.6753
932,2018/2/21,15:31,34-52.34N,139-56.89E,64,17.918,34.6497
933,2018/2/21,15:32,34-52.48N,139-57.26E,65,17.843,34.6169
934,2018/2/21,15:33,34-52.61N,139-57.61E,66,17.82,34.5892
935,2018/2/21,15:34,34-52.74N,139-57.98E,66,17.83,34.5722
936,2018/2/21,15:35,34-52.87N,139-58.34E,67,17.831,34.5823
937,2018/2/21,15:36,34-53.00N,139-58.72E,67,17.865,34.62
938,2018/2/21,15:37,34-53.12N,139-59.09E,68,17.851,34.6438
939,2018/2/21,15:38,34-53.24N,139-59.46E,68,17.803,34.6595
940,2018/2/21,15:39,34-53.37N,139-59.83E,67,17.742,34.6581
941,2018/2/21,15:40,34-53.50N,140-00.21E,68,17.678,34.6544
942,2018/2/21,15:41,34-53.62N,140-00.58E,67,17.524,34.6565
943,2018/2/21,15:42,34-53.74N,140-00.95E,67,17.484,34.6551
944,2018/2/21,15:43,34-53.87N,140-01.32E,67,17.5,34.6514
945,2018/2/21,15:44,34-54.00N,140-01.69E,67,17.489,34.6555
946,2018/2/21,15:45,34-54.13N,140-02.06E,67,17.466,34.658
947,2018/2/21,15:46,34-54.25N,140-02.41E,66,17.515,34.6617
948,2018/2/21,15:47,34-54.38N,140-02.77E,66,17.577,34.6677
949,2018/2/21,15:48,34-54.50N,140-03.11E,66,17.607,34.6806
950,2018/2/21,15:49,34-54.63N,140-03.46E,65,17.624,34.6849
951,2018/2/21,15:50,34-54.76N,140-03.81E,65,17.625,34.6879
952,2018/2/21,15:51,34-54.89N,140-04.15E,65,17.631,34.6906
953,2018/2/21,15:52,34-55.02N,140-04.50E,65,17.63,34.6906
954,2018/2/21,15:53,34-55.15N,140-04.85E,65,17.591,34.6932
955,2018/2/21,15:54,34-55.28N,140-05.19E,65,17.586,34.6922
956,2018/2/21,15:55,34-55.41N,140-05.53E,65,17.587,34.691
957,2018/2/21,15:56,34-55.54N,140-05.87E,65,17.595,34.6892
958,2018/2/21,15:57,34-55.67N,140-06.22E,65,17.565,34.6904
959,2018/2/21,15:58,34-55.81N,140-06.56E,64,17.523,34.6911
960,2018/2/21,15:59,34-55.94N,140-06.90E,64,17.496,34.6884
961,2018/2/21,16:00,34-56.06N,140-07.22E,64,17.49,34.6869
962,2018/2/21,16:01,34-56.19N,140-07.56E,64,17.476,34.6882
963,2018/2/21,16:02,34-56.32N,140-07.89E,65,17.455,34.6895
964,2018/2/21,16:03,34-56.45N,140-08.22E,64,17.391,34.6896
965,2018/2/21,16:04,34-56.59N,140-08.54E,62,17.378,34.6861
966,2018/2/21,16:05,34-56.72N,140-08.86E,62,17.698,34.6809
967,2018/2/21,16:06,34-56.86N,140-09.18E,62,17.912,34.6865
968,2018/2/21,16:07,34-57.00N,140-09.50E,62,18.049,34.6951
969,2018/2/21,16:08,34-57.13N,140-09.83E,62,18.13,34.7032
970,2018/2/21,16:09,34-57.27N,140-10.15E,62,18.189,34.7074
971,2018/2/21,16:10,34-57.41N,140-10.47E,62,18.246,34.7112
972,2018/2/21,16:11,34-57.55N,140-10.79E,62,18.288,34.715
973,2018/2/21,16:12,34-57.69N,140-11.12E,62,18.324,34.718
974,2018/2/21,16:13,34-57.82N,140-11.43E,62,18.353,34.7204
975,2018/2/21,16:14,34-57.96N,140-11.76E,62,18.378,34.7222
976,2018/2/21,16:15,34-58.10N,140-12.08E,63,18.391,34.7236
977,2018/2/21,16:16,34-58.24N,140-12.41E,61,18.397,34.7237
978,2018/2/21,16:17,34-58.38N,140-12.72E,59,18.396,34.7228
979,2018/2/21,16:18,34-58.54N,140-13.03E,57,18.393,34.7219
980,2018/2/21,16:19,34-58.71N,140-13.34E,57,18.397,34.72
981,2018/2/21,16:20,34-58.87N,140-13.66E,57,18.404,34.7178
982,2018/2/21,16:21,34-59.04N,140-13.97E,57,18.408,34.717
983,2018/2/21,16:22,34-59.21N,140-14.28E,57,18.406,34.7152
984,2018/2/21,16:23,34-59.37N,140-14.60E,57,18.403,34.7125
985,2018/2/21,16:24,34-59.54N,140-14.93E,58,18.405,34.7095
986,2018/2/21,16:25,34-59.70N,140-15.24E,58,18.399,34.7074
987,2018/2/21,16:26,34-59.86N,140-15.57E,58,18.397,34.7022
988,2018/2/21,16:27,35-00.03N,140-15.89E,58,18.405,34.697
989,2018/2/21,16:28,35-00.20N,140-16.22E,58,18.404,34.699
990,2018/2/21,16:29,35-00.37N,140-16.55E,58,18.396,34.6968
991,2018/2/21,16:30,35-00.53N,140-16.88E,58,18.395,34.6962
992,2018/2/21,16:31,35-00.69N,140-17.21E,58,18.395,34.6921
993,2018/2/21,16:32,35-00.86N,140-17.53E,58,18.396,34.6907
994,2018/2/21,16:33,35-01.02N,140-17.87E,58,18.395,34.6933
995,2018/2/21,16:34,35-01.18N,140-18.19E,59,18.392,34.6959
996,2018/2/21,16:35,35-01.35N,140-18.52E,58,18.395,34.6958
997,2018/2/21,16:36,35-01.51N,140-18.84E,58,18.394,34.6986
998,2018/2/21,16:37,35-01.67N,140-19.17E,59,18.394,34.7007
999,2018/2/21,16:38,35-01.83N,140-19.51E,59,18.383,34.7009
1000,2018/2/21,16:39,35-01.99N,140-19.84E,59,18.388,34.7021
1001,2018/2/21,16:40,35-02.15N,140-20.17E,59,18.375,34.7039
1002,2018/2/21,16:41,35-02.31N,140-20.49E,59,18.366,34.6996
1003,2018/2/21,16:42,35-02.47N,140-20.83E,60,18.356,34.6995
1004,2018/2/21,16:43,35-02.63N,140-21.17E,59,18.345,34.6984
1005,2018/2/21,16:44,35-02.79N,140-21.50E,59,18.326,34.6979
1006,2018/2/21,16:45,35-02.95N,140-21.83E,58,18.307,34.6942
1007,2018/2/21,16:46,35-03.13N,140-22.16E,56,18.3,34.6912
1008,2018/2/21,16:47,35-03.31N,140-22.47E,54,18.288,34.6909
1009,2018/2/21,16:48,35-03.50N,140-22.79E,54,18.271,34.6917
1010,2018/2/21,16:49,35-03.69N,140-23.11E,53,18.261,34.6904
1011,2018/2/21,16:50,35-03.87N,140-23.42E,56,18.249,34.6902
1012,2018/2/21,16:51,35-04.07N,140-23.70E,45,18.239,34.6883
1013,2018/2/21,16:52,35-04.30N,140-23.97E,44,18.217,34.6892
1014,2018/2/21,16:53,35-04.52N,140-24.25E,46,18.193,34.6885
1015,2018/2/21,16:54,35-04.72N,140-24.53E,48,18.167,34.6867
1016,2018/2/21,16:55,35-04.93N,140-24.82E,49,18.159,34.6851
1017,2018/2/21,16:56,35-05.13N,140-25.13E,53,18.144,34.6844
1018,2018/2/21,16:57,35-05.31N,140-25.45E,55,18.134,34.6842
1019,2018/2/21,16:58,35-05.49N,140-25.77E,57,18.126,34.6836
1020,2018/2/21,16:59,35-05.66N,140-26.11E,58,18.12,34.6845
1021,2018/2/21,17:00,35-05.83N,140-26.44E,58,18.114,34.6841
1022,2018/2/21,17:01,35-06.00N,140-26.78E,58,18.111,34.6842
1023,2018/2/21,17:02,35-06.17N,140-27.12E,58,18.106,34.6848
1024,2018/2/21,17:03,35-06.34N,140-27.46E,58,18.102,34.6842
1025,2018/2/21,17:04,35-06.51N,140-27.79E,58,18.098,34.6847
1026,2018/2/21,17:05,35-06.68N,140-28.13E,58,18.093,34.6845
1027,2018/2/21,17:06,35-06.85N,140-28.47E,58,18.091,34.6845
1028,2018/2/21,17:07,35-07.02N,140-28.81E,58,18.085,34.6833
1029,2018/2/21,17:08,35-07.20N,140-29.15E,58,18.087,34.6841
1030,2018/2/21,17:09,35-07.37N,140-29.48E,57,18.083,34.6849
1031,2018/2/21,17:10,35-07.54N,140-29.82E,58,18.081,34.6849
1032,2018/2/21,17:11,35-07.71N,140-30.16E,57,18.083,34.6854
1033,2018/2/21,17:12,35-07.89N,140-30.49E,57,18.08,34.6857
1034,2018/2/21,17:13,35-08.06N,140-30.83E,58,18.071,34.6855
1035,2018/2/21,17:14,35-08.23N,140-31.16E,58,18.069,34.6844
1036,2018/2/21,17:15,35-08.40N,140-31.49E,56,18.065,34.6848
1037,2018/2/21,17:16,35-08.63N,140-31.74E,37,18.05,34.6841
1038,2018/2/21,17:17,35-08.87N,140-31.98E,38,18.038,34.6833
1039,2018/2/21,17:18,35-09.13N,140-32.22E,37,18.041,34.6828
1040,2018/2/21,17:19,35-09.38N,140-32.45E,37,18.03,34.685
1041,2018/2/21,17:20,35-09.63N,140-32.69E,38,18.026,34.6857
1042,2018/2/21,17:21,35-09.88N,140-32.93E,37,18.022,34.6874
1043,2018/2/21,17:22,35-10.13N,140-33.17E,38,18.013,34.6882
1044,2018/2/21,17:23,35-10.39N,140-33.41E,38,18.009,34.6867
1045,2018/2/21,17:24,35-10.64N,140-33.65E,37,18.009,34.6858
1046,2018/2/21,17:25,35-10.89N,140-33.89E,38,18.001,34.6853
1047,2018/2/21,17:26,35-11.15N,140-34.13E,37,17.996,34.6848
1048,2018/2/21,17:27,35-11.40N,140-34.37E,37,17.974,34.6837
1049,2018/2/21,17:28,35-11.65N,140-34.61E,38,17.918,34.6825
1050,2018/2/21,17:29,35-11.91N,140-34.85E,37,17.774,34.6817
1051,2018/2/21,17:30,35-12.16N,140-35.08E,36,17.57,34.6752
1052,2018/2/21,17:31,35-12.41N,140-35.31E,36,17.458,34.6653
1053,2018/2/21,17:32,35-12.66N,140-35.53E,36,17.377,34.6607
1054,2018/2/21,17:33,35-12.90N,140-35.76E,37,17.292,34.6561
1055,2018/2/21,17:34,35-13.15N,140-35.98E,37,17.143,34.6517
1056,2018/2/21,17:35,35-13.39N,140-36.21E,38,17.124,34.6447
1057,2018/2/21,17:36,35-13.62N,140-36.43E,36,17.112,34.6435
1058,2018/2/21,17:37,35-13.87N,140-36.66E,37,17.08,34.6437
1059,2018/2/21,17:38,35-14.11N,140-36.89E,38,17.011,34.6433
1060,2018/2/21,17:39,35-14.35N,140-37.11E,38,16.968,34.6418
1061,2018/2/21,17:40,35-14.59N,140-37.35E,37,16.897,34.641
1062,2018/2/21,17:41,35-14.83N,140-37.56E,35,16.717,34.639
1063,2018/2/21,17:42,35-15.08N,140-37.78E,35,16.598,34.6311
1064,2018/2/21,17:43,35-15.36N,140-38.03E,36,16.425,34.6241
1065,2018/2/21,17:44,35-15.60N,140-38.24E,36,16.285,34.6159
1066,2018/2/21,17:45,35-15.81N,140-38.44E,35,16.288,34.6063
1067,2018/2/21,17:46,35-16.06N,140-38.65E,36,16.416,34.604
1068,2018/2/21,17:47,35-16.31N,140-38.87E,35,16.45,34.6121
1069,2018/2/21,17:48,35-16.56N,140-39.09E,35,16.468,34.6163
1070,2018/2/21,17:49,35-16.80N,140-39.30E,35,16.478,34.617
1071,2018/2/21,17:50,35-17.05N,140-39.52E,35,16.496,34.6179
1072,2018/2/21,17:51,35-17.30N,140-39.74E,35,16.53,34.6183
1073,2018/2/21,17:52,35-17.55N,140-39.95E,34,16.57,34.619
1074,2018/2/21,17:53,35-17.80N,140-40.16E,35,16.623,34.6213
1075,2018/2/21,17:54,35-18.05N,140-40.38E,35,16.663,34.624
1076,2018/2/21,17:55,35-18.30N,140-40.59E,35,16.688,34.6279
1077,2018/2/21,17:56,35-18.54N,140-40.80E,35,16.723,34.6296
1078,2018/2/21,17:57,35-18.79N,140-41.02E,35,16.729,34.633
1079,2018/2/21,17:58,35-19.04N,140-41.24E,35,16.678,34.6342
1080,2018/2/21,17:59,35-19.29N,140-41.45E,35,16.592,34.6321
1081,2018/2/21,18:00,35-19.54N,140-41.66E,35,16.54,34.6283
1082,2018/2/21,18:01,35-19.79N,140-41.88E,35,16.511,34.624
1083,2018/2/21,18:02,35-20.04N,140-42.10E,35,16.475,34.6223
1084,2018/2/21,18:03,35-20.29N,140-42.31E,35,16.426,34.6216
1085,2018/2/21,18:04,35-20.54N,140-42.53E,35,16.343,34.6202
1086,2018/2/21,18:05,35-20.79N,140-42.75E,35,16.375,34.6179
1087,2018/2/21,18:06,35-21.04N,140-42.96E,35,16.341,34.6207
1088,2018/2/21,18:07,35-21.29N,140-43.18E,35,16.293,34.6218
1089,2018/2/21,18:08,35-21.54N,140-43.40E,35,16.301,34.6221
1090,2018/2/21,18:09,35-21.78N,140-43.61E,36,16.276,34.6254
1091,2018/2/21,18:10,35-22.03N,140-43.83E,34,16.175,34.6268
1092,2018/2/21,18:11,35-22.28N,140-44.04E,35,16.002,34.626
1093,2018/2/21,18:12,35-22.53N,140-44.25E,34,15.879,34.6224
1094,2018/2/21,18:13,35-22.78N,140-44.45E,34,15.804,34.6189
1095,2018/2/21,18:14,35-23.04N,140-44.66E,33,15.758,34.6103
1096,2018/2/21,18:15,35-23.28N,140-44.86E,33,15.749,34.6058
1097,2018/2/21,18:16,35-23.53N,140-45.06E,33,15.739,34.6053
1098,2018/2/21,18:17,35-23.78N,140-45.26E,33,15.798,34.6057
1099,2018/2/21,18:18,35-24.04N,140-45.47E,33,15.85,34.6097
1100,2018/2/21,18:19,35-24.29N,140-45.67E,34,15.866,34.6153
1101,2018/2/21,18:20,35-24.53N,140-45.87E,34,15.874,34.6185
1102,2018/2/21,18:21,35-24.78N,140-46.08E,33,15.907,34.62
1103,2018/2/21,18:22,35-25.03N,140-46.28E,33,15.964,34.6238
1104,2018/2/21,18:23,35-25.28N,140-46.48E,34,15.939,34.6263
1105,2018/2/21,18:24,35-25.52N,140-46.68E,34,15.894,34.6269
1106,2018/2/21,18:25,35-25.77N,140-46.89E,33,15.881,34.6262
1107,2018/2/21,18:26,35-26.03N,140-47.09E,33,15.838,34.6253
1108,2018/2/21,18:27,35-26.28N,140-47.29E,34,15.549,34.6254
1109,2018/2/21,18:28,35-26.52N,140-47.50E,34,15.464,34.6164
1110,2018/2/21,18:29,35-26.77N,140-47.70E,33,15.422,34.6112
1111,2018/2/21,18:30,35-27.02N,140-47.90E,33,15.273,34.6101
1112,2018/2/21,18:31,35-27.26N,140-48.10E,34,14.783,34.6017
1113,2018/2/21,18:32,35-27.51N,140-48.30E,33,14.672,34.5685
1114,2018/2/21,18:33,35-27.76N,140-48.50E,34,14.338,34.5545
1115,2018/2/21,18:34,35-28.00N,140-48.70E,34,14.124,34.5301
1116,2018/2/21,18:35,35-28.24N,140-48.90E,33,14.026,34.5062
1117,2018/2/21,18:36,35-28.49N,140-49.10E,34,13.997,34.4928
1118,2018/2/21,18:37,35-28.73N,140-49.30E,35,13.983,34.488
1119,2018/2/21,18:38,35-28.97N,140-49.50E,34,14.004,34.4879
1120,2018/2/21,18:39,35-29.20N,140-49.70E,34,14.06,34.4888